Regional Weather Roundup
Issued by NWS

Home | Current Version | Previous Version | Graphics & Text | Print | Product List | Glossary On
Versions: 1 2 3 4 5 6 7 8 9 10 11 12 13 14 15 16 17 18 19 20 21 22 23 24 25 26 27 28 29 30 31 32 33 34 35 36 37 38 39 40 41 42 43 44 45 46 47 48 49 50
000
ASUS43 KTOP 272308
RWRKS

WEATHER ROUNDUP FOR KANSAS
NATIONAL WEATHER SERVICE GOODLAND KS
600 PM CDT TUE JUN 27 2017

NOTE:  "FAIR" INDICATES FEW OR NO CLOUDS BELOW 12,000 FEET WITH NO
SIGNIFICANT WEATHER AND/OR OBSTRUCTIONS TO VISIBILITY.

KSZ001>006-013>018-027>032-041>047-280000-
NORTHWEST KANSAS

CITY           SKY/WX    TMP DP  RH WIND       PRES   REMARKS
GOODLAND       PTSUNNY   91  50  24 VRB6      29.73F
HAYS           SUNNY     96  60  30 S24G33    29.73F HX  96
HILL CITY      SUNNY     96  55  25 S18G32    29.72F
RUSSELL        SUNNY     96  63  33 S28G36    29.74F HX  97
$$

KSZ061>065-074>080-084>089-280000-
SOUTHWEST KANSAS

CITY           SKY/WX    TMP DP  RH WIND       PRES   REMARKS
DODGE CITY     SUNNY     92  55  28 S25G37    29.80F
ELKHART          N/A    N/A N/A N/A MISG        N/A
GARDEN CITY    SUNNY     95  55  26 S26G36    29.77F
GREAT BEND     SUNNY     93  65  39 S24G33    29.77F HX  95
LIBERAL        SUNNY     94  58  29 S24G32    29.82F
PRATT          SUNNY     90  60  36 S25G35    29.82F
$$

KSZ066>073-081>083-090>101-280000-
SOUTHEAST KANSAS

CITY           SKY/WX    TMP DP  RH WIND       PRES   REMARKS
CHANUTE        SUNNY     86  63  45 S17G23    29.94F
COFFEYVILLE    SUNNY     87  62  43 S16       29.93F
HUTCHINSON     MOSUNNY   94  62  34 S24G36    29.82F
MEDICINE LODGE   N/A     94  60  32 S21G31    29.81F
NEWTON         SUNNY     87  70  56 S23G31    29.86F
PARSONS        SUNNY     85  64  49 S13G18    29.94F
WICHITA INTL   MOSUNNY   89  68  49 SE25G32   29.85F
WICHITA JABRA  SUNNY     86  70  58 SE22G29   29.86F
WINFIELD       SUNNY     87  68  52 SE20G30   29.89F
$$

KSZ007>012-019>026-033>040-048>060-102>105-280000-
NORTHEAST KANSAS

CITY           SKY/WX    TMP DP  RH WIND       PRES   REMARKS
CONCORDIA      SUNNY     89  71  55 SE22G32   29.78F HX  95
EMPORIA        SUNNY     83  67  58 SE20G28   29.89F
LAWRENCE       PTSUNNY   80  68  66 SE13      29.91F
MANHATTAN      MOSUNNY   86  71  60 S15G23    29.83F
MARYSVILLE     MOSUNNY   81  70  69 SE18G26   29.84F
OLATHE IND     CLOUDY    81  66  60 S14       29.94F
OLATHE EXE     MOSUNNY   79  66  64 S16G23    29.95F
SALINA         SUNNY     95  65  37 S29G38    29.79F HX  97
TOPEKA BILLARD MOSUNNY   80  69  69 SE18G25   29.90F
TOPEKA FORBES  CLOUDY    81  68  64 SE14G23   29.90F
$$




USA.gov is the U.S. government's official web portal to all federal, state and local government web resources and services.